Time,TemperatureF,DewpointF,PressureIn,WindDirection,WindDirectionDegrees,WindSpeedMPH,WindSpeedGustMPH,Humidity,HourlyPrecipIn,Conditions,Clouds,dailyrainin,SoftwareType,DateUTC
2013-04-21 00:01:00,41.0,33.0,-100.00,NNE,20,4.0,11.0,73,-99.99,,,-99.99,,2013-04-21 06:01:00,
2013-04-21 00:12:00,41.0,33.0,-100.00,North,350,2.0,6.0,73,-99.99,,,-99.99,,2013-04-21 06:12:00,
2013-04-21 00:21:00,40.0,34.0,-100.00,NNW,330,2.0,9.0,78,-99.99,,,-99.99,,2013-04-21 06:21:00,
2013-04-21 00:32:00,39.0,34.0,-100.00,North,0,2.0,6.0,81,-99.99,,,-99.99,,2013-04-21 06:32:00,
2013-04-21 00:42:00,39.0,34.0,-100.00,West,275,1.0,4.0,83,-99.99,,,-99.99,,2013-04-21 06:42:00,
2013-04-21 00:51:00,39.0,35.0,-100.00,SE,145,0.0,4.0,85,-99.99,,,-99.99,,2013-04-21 06:51:00,
2013-04-21 01:01:00,39.0,35.0,-100.00,NNE,25,2.0,6.0,87,-99.99,,,-99.99,,2013-04-21 07:01:00,
2013-04-21 01:11:00,38.0,35.0,-100.00,NW,315,2.0,4.0,88,-99.99,,,-99.99,,2013-04-21 07:11:00,
2013-04-21 01:21:00,38.0,36.0,-100.00,North,0,2.0,9.0,89,-99.99,,,-99.99,,2013-04-21 07:21:00,
2013-04-21 01:31:00,39.0,36.0,-100.00,North,5,2.0,9.0,88,-99.99,,,-99.99,,2013-04-21 07:31:00,
2013-04-21 01:41:00,39.0,36.0,-100.00,North,5,2.0,9.0,88,-99.99,,,-99.99,,2013-04-21 07:41:00,
2013-04-21 01:52:00,39.0,36.0,-100.00,North,10,1.0,6.0,88,-99.99,,,-99.99,,2013-04-21 07:52:00,
2013-04-21 02:01:00,39.0,36.0,-100.00,North,0,2.0,6.0,88,-99.99,,,-99.99,,2013-04-21 08:01:00,
2013-04-21 02:11:00,39.0,36.0,-100.00,ENE,70,2.0,4.0,87,-99.99,,,-99.99,,2013-04-21 08:11:00,
2013-04-21 02:21:00,39.0,35.0,-100.00,SSW,195,2.0,11.0,86,-99.99,,,-99.99,,2013-04-21 08:21:00,
2013-04-21 02:32:00,39.0,35.0,-100.00,North,0,1.0,6.0,86,-99.99,,,-99.99,,2013-04-21 08:32:00,
2013-04-21 02:41:00,39.0,35.0,-100.00,SSE,150,1.0,6.0,86,-99.99,,,-99.99,,2013-04-21 08:41:00,
2013-04-21 02:52:00,39.0,35.0,-100.00,NNE,15,1.0,6.0,86,-99.99,,,-99.99,,2013-04-21 08:52:00,
2013-04-21 03:01:00,39.0,35.0,-100.00,East,80,1.0,4.0,86,-99.99,,,-99.99,,2013-04-21 09:01:00,
2013-04-21 03:11:00,39.0,35.0,-100.00,WSW,250,3.0,6.0,86,-99.99,,,-99.99,,2013-04-21 09:11:00,
2013-04-21 03:21:00,39.0,35.0,-100.00,ESE,120,1.0,4.0,86,-99.99,,,-99.99,,2013-04-21 09:21:00,
2013-04-21 03:32:00,38.0,35.0,-100.00,North,10,3.0,7.0,86,-99.99,,,-99.99,,2013-04-21 09:32:00,
2013-04-21 03:42:00,38.0,35.0,-100.00,SSW,200,2.0,4.0,86,-99.99,,,-99.99,,2013-04-21 09:42:00,
2013-04-21 03:52:00,38.0,34.0,-100.00,South,170,2.0,4.0,86,-99.99,,,-99.99,,2013-04-21 09:52:00,
2013-04-21 04:02:00,37.0,34.0,-100.00,WNW,300,1.0,2.0,86,-99.99,,,-99.99,,2013-04-21 10:02:00,
2013-04-21 04:12:00,36.0,33.0,-100.00,North,5,1.0,2.0,88,-99.99,,,-99.99,,2013-04-21 10:12:00,
2013-04-21 04:22:00,35.0,32.0,-100.00,NE,40,1.0,2.0,89,-99.99,,,-99.99,,2013-04-21 10:22:00,
2013-04-21 04:32:00,35.0,32.0,-100.00,ENE,65,0.0,2.0,90,-99.99,,,-99.99,,2013-04-21 10:32:00,
2013-04-21 04:42:00,34.0,32.0,-100.00,ENE,75,0.0,2.0,90,-99.99,,,-99.99,,2013-04-21 10:42:00,
2013-04-21 04:52:00,33.0,31.0,-100.00,NW,320,2.0,3.0,91,-99.99,,,-99.99,,2013-04-21 10:52:00,
2013-04-21 05:02:00,33.0,31.0,-100.00,NNW,345,2.0,4.0,92,-99.99,,,-99.99,,2013-04-21 11:02:00,
2013-04-21 05:11:00,33.0,31.0,-100.00,NNW,340,1.0,2.0,92,-99.99,,,-99.99,,2013-04-21 11:11:00,
2013-04-21 05:22:00,33.0,31.0,-100.00,NNW,340,0.0,1.0,93,-99.99,,,-99.99,,2013-04-21 11:22:00,
2013-04-21 05:33:00,33.0,31.0,-100.00,NE,35,1.0,2.0,93,-99.99,,,-99.99,,2013-04-21 11:33:00,
2013-04-21 05:42:00,33.0,31.0,-100.00,NE,35,0.0,0.0,94,-99.99,,,-99.99,,2013-04-21 11:42:00,
2013-04-21 05:52:00,33.0,31.0,-100.00,NE,35,0.0,0.0,94,-99.99,,,-99.99,,2013-04-21 11:52:00,
2013-04-21 06:02:00,33.0,32.0,-100.00,NE,35,0.0,1.0,95,-99.99,,,-99.99,,2013-04-21 12:02:00,
2013-04-21 06:12:00,33.0,32.0,-100.00,NE,50,0.0,1.0,96,-99.99,,,-99.99,,2013-04-21 12:12:00,
2013-04-21 06:22:00,33.0,33.0,-100.00,NE,50,0.0,0.0,96,-99.99,,,-99.99,,2013-04-21 12:22:00,
2013-04-21 06:31:00,33.0,33.0,-100.00,NE,50,0.0,0.0,96,-99.99,,,-99.99,,2013-04-21 12:31:00,
2013-04-21 06:42:00,34.0,33.0,-100.00,NE,50,0.0,0.0,96,-99.99,,,-99.99,,2013-04-21 12:42:00,
2013-04-21 06:52:00,33.0,33.0,-100.00,NE,50,0.0,0.0,97,-99.99,,,-99.99,,2013-04-21 12:52:00,
2013-04-21 07:01:00,33.0,33.0,-100.00,NE,50,0.0,0.0,97,-99.99,,,-99.99,,2013-04-21 13:01:00,
2013-04-21 07:11:00,33.0,33.0,-100.00,NE,45,0.0,1.0,97,-99.99,,,-99.99,,2013-04-21 13:11:00,
2013-04-21 07:21:00,33.0,33.0,-100.00,NE,45,0.0,0.0,97,-99.99,,,-99.99,,2013-04-21 13:21:00,
2013-04-21 07:32:00,33.0,33.0,-100.00,ESE,105,0.0,0.0,98,-99.99,,,-99.99,,2013-04-21 13:32:00,
2013-04-21 07:42:00,33.0,33.0,-100.00,ENE,65,1.0,2.0,98,-99.99,,,-99.99,,2013-04-21 13:42:00,
2013-04-21 07:52:00,33.0,33.0,-100.00,ENE,60,0.0,2.0,98,-99.99,,,-99.99,,2013-04-21 13:52:00,
2013-04-21 08:01:00,34.0,34.0,-100.00,East,90,1.0,2.0,98,-99.99,,,-99.99,,2013-04-21 14:01:00,
2013-04-21 08:11:00,35.0,34.0,-100.00,ENE,65,2.0,2.0,98,-99.99,,,-99.99,,2013-04-21 14:11:00,
2013-04-21 08:21:00,35.0,35.0,-100.00,East,90,1.0,3.0,98,-99.99,,,-99.99,,2013-04-21 14:21:00,
2013-04-21 08:31:00,39.0,38.0,-100.00,ENE,75,2.0,4.0,94,-99.99,,,-99.99,,2013-04-21 14:31:00,
2013-04-21 08:42:00,39.0,38.0,-100.00,ENE,75,2.0,4.0,94,-99.99,,,-99.99,,2013-04-21 14:42:00,
2013-04-21 08:52:00,41.0,38.0,-100.00,ENE,65,3.0,4.0,86,-99.99,,,-99.99,,2013-04-21 14:52:00,
2013-04-21 09:02:00,43.0,37.0,-100.00,ENE,60,1.0,4.0,77,-99.99,,,-99.99,,2013-04-21 15:02:00,
2013-04-21 09:11:00,45.0,35.0,-100.00,East,80,1.0,4.0,68,-99.99,,,-99.99,,2013-04-21 15:11:00,
2013-04-21 09:22:00,46.0,34.0,-100.00,NE,45,2.0,4.0,63,-99.99,,,-99.99,,2013-04-21 15:22:00,
2013-04-21 09:33:00,46.0,32.0,-100.00,East,95,3.0,6.0,58,-99.99,,,-99.99,,2013-04-21 15:33:00,
2013-04-21 09:42:00,48.0,32.0,-100.00,East,80,1.0,6.0,53,-99.99,,,-99.99,,2013-04-21 15:42:00,
2013-04-21 09:53:00,49.0,31.0,-100.00,East,85,2.0,4.0,49,-99.99,,,-99.99,,2013-04-21 15:53:00,
2013-04-21 10:03:00,50.0,31.0,-100.00,ENE,75,1.0,4.0,46,-99.99,,,-99.99,,2013-04-21 16:03:00,
2013-04-21 10:12:00,50.0,30.0,-100.00,East,90,1.0,3.0,45,-99.99,,,-99.99,,2013-04-21 16:12:00,
2013-04-21 10:22:00,52.0,31.0,-100.00,South,190,2.0,6.0,44,-99.99,,,-99.99,,2013-04-21 16:22:00,
2013-04-21 10:32:00,53.0,30.0,-100.00,ESE,120,1.0,4.0,42,-99.99,,,-99.99,,2013-04-21 16:32:00,
2013-04-21 10:42:00,54.0,29.0,-100.00,East,90,1.0,4.0,39,-99.99,,,-99.99,,2013-04-21 16:42:00,
2013-04-21 10:52:00,54.0,28.0,-100.00,SW,215,5.0,9.0,36,-99.99,,,-99.99,,2013-04-21 16:52:00,
2013-04-21 11:02:00,54.0,26.0,-100.00,SW,220,7.0,11.0,34,-99.99,,,-99.99,,2013-04-21 17:02:00,
2013-04-21 11:12:00,55.0,25.0,-100.00,SSW,195,5.0,9.0,31,-99.99,,,-99.99,,2013-04-21 17:12:00,
2013-04-21 11:22:00,56.0,24.0,-100.00,SSW,195,6.0,11.0,28,-99.99,,,-99.99,,2013-04-21 17:22:00,
2013-04-21 11:32:00,56.0,24.0,-100.00,SSW,205,5.0,14.0,28,-99.99,,,-99.99,,2013-04-21 17:32:00,
2013-04-21 11:42:00,56.0,25.0,-100.00,SW,215,7.0,12.0,30,-99.99,,,-99.99,,2013-04-21 17:42:00,
2013-04-21 11:52:00,55.0,24.0,-100.00,SSW,210,7.0,12.0,29,-99.99,,,-99.99,,2013-04-21 17:52:00,
2013-04-21 12:02:00,55.0,24.0,-100.00,SW,220,7.0,16.0,30,-99.99,,,-99.99,,2013-04-21 18:02:00,
2013-04-21 12:11:00,56.0,25.0,-100.00,SSW,210,8.0,14.0,29,-99.99,,,-99.99,,2013-04-21 18:11:00,
2013-04-21 12:21:00,56.0,24.0,-100.00,SW,220,12.0,17.0,28,-99.99,,,-99.99,,2013-04-21 18:21:00,
2013-04-21 12:32:00,57.0,25.0,-100.00,SW,215,9.0,17.0,28,-99.99,,,-99.99,,2013-04-21 18:32:00,
2013-04-21 12:42:00,57.0,25.0,-100.00,SW,215,9.0,17.0,28,-99.99,,,-99.99,,2013-04-21 18:42:00,
2013-04-21 12:52:00,57.0,25.0,-100.00,South,185,4.0,19.0,28,-99.99,,,-99.99,,2013-04-21 18:52:00,
2013-04-21 13:02:00,58.0,25.0,-100.00,SSW,210,5.0,16.0,27,-99.99,,,-99.99,,2013-04-21 19:02:00,
2013-04-21 13:11:00,58.0,24.0,-100.00,SW,225,11.0,19.0,26,-99.99,,,-99.99,,2013-04-21 19:11:00,
2013-04-21 13:21:00,58.0,24.0,-100.00,SW,220,7.0,18.0,26,-99.99,,,-99.99,,2013-04-21 19:21:00,
2013-04-21 13:32:00,58.0,24.0,-100.00,SSW,210,9.0,20.0,26,-99.99,,,-99.99,,2013-04-21 19:32:00,
2013-04-21 13:42:00,58.0,23.0,-100.00,SW,230,9.0,16.0,25,-99.99,,,-99.99,,2013-04-21 19:42:00,
2013-04-21 13:52:00,57.0,22.0,-100.00,SW,220,11.0,18.0,25,-99.99,,,-99.99,,2013-04-21 19:52:00,
2013-04-21 14:01:00,57.0,22.0,-100.00,SW,220,10.0,19.0,25,-99.99,,,-99.99,,2013-04-21 20:01:00,
2013-04-21 14:11:00,58.0,22.0,-100.00,SW,215,7.0,19.0,24,-99.99,,,-99.99,,2013-04-21 20:11:00,
2013-04-21 14:22:00,59.0,21.0,-100.00,SW,220,7.0,21.0,22,-99.99,,,-99.99,,2013-04-21 20:22:00,
2013-04-21 14:31:00,59.0,22.0,-100.00,South,170,7.0,21.0,23,-99.99,,,-99.99,,2013-04-21 20:31:00,
2013-04-21 14:41:00,60.0,22.0,-100.00,SW,220,9.0,20.0,23,-99.99,,,-99.99,,2013-04-21 20:41:00,
2013-04-21 14:52:00,60.0,22.0,-100.00,SSW,210,7.0,14.0,22,-99.99,,,-99.99,,2013-04-21 20:52:00,
2013-04-21 15:02:00,59.0,21.0,-100.00,SW,230,11.0,23.0,23,-99.99,,,-99.99,,2013-04-21 21:02:00,
2013-04-21 15:12:00,59.0,22.0,-100.00,SW,225,9.0,22.0,23,-99.99,,,-99.99,,2013-04-21 21:12:00,
2013-04-21 15:21:00,59.0,23.0,-100.00,SSW,210,11.0,20.0,24,-99.99,,,-99.99,,2013-04-21 21:21:00,
2013-04-21 15:33:00,58.0,22.0,-100.00,SW,215,9.0,19.0,24,-99.99,,,-99.99,,2013-04-21 21:33:00,
2013-04-21 15:43:00,58.0,21.0,-100.00,SW,225,7.0,18.0,24,-99.99,,,-99.99,,2013-04-21 21:43:00,
2013-04-21 15:53:00,59.0,21.0,-100.00,SSW,210,11.0,17.0,23,-99.99,,,-99.99,,2013-04-21 21:53:00,
2013-04-21 16:02:00,59.0,23.0,-100.00,SSW,210,9.0,18.0,24,-99.99,,,-99.99,,2013-04-21 22:02:00,
2013-04-21 16:12:00,58.0,22.0,-100.00,SW,215,7.0,17.0,25,-99.99,,,-99.99,,2013-04-21 22:12:00,
2013-04-21 16:22:00,57.0,23.0,-100.00,SW,230,6.0,16.0,26,-99.99,,,-99.99,,2013-04-21 22:22:00,
2013-04-21 16:33:00,56.0,23.0,-100.00,SSE,160,6.0,16.0,27,-99.99,,,-99.99,,2013-04-21 22:33:00,
2013-04-21 16:43:00,57.0,24.0,-100.00,SSW,205,10.0,14.0,27,-99.99,,,-99.99,,2013-04-21 22:43:00,
2013-04-21 16:52:00,57.0,24.0,-100.00,SSW,205,7.0,13.0,27,-99.99,,,-99.99,,2013-04-21 22:52:00,
2013-04-21 17:02:00,58.0,24.0,-100.00,SW,215,9.0,14.0,26,-99.99,,,-99.99,,2013-04-21 23:02:00,
2013-04-21 17:12:00,58.0,23.0,-100.00,SW,220,7.0,21.0,25,-99.99,,,-99.99,,2013-04-21 23:12:00,
2013-04-21 17:22:00,57.0,22.0,-100.00,SW,230,12.0,18.0,24,-99.99,,,-99.99,,2013-04-21 23:22:00,
2013-04-21 17:32:00,56.0,20.0,-100.00,SW,220,12.0,17.0,24,-99.99,,,-99.99,,2013-04-21 23:32:00,
2013-04-21 17:42:00,57.0,21.0,-100.00,SW,215,11.0,16.0,24,-99.99,,,-99.99,,2013-04-21 23:42:00,
2013-04-21 17:52:00,56.0,20.0,-100.00,SSW,200,7.0,18.0,24,-99.99,,,-99.99,,2013-04-21 23:52:00,
2013-04-21 18:01:00,55.0,19.0,-100.00,SW,215,11.0,17.0,24,-99.99,,,-99.99,,2013-04-22 00:01:00,
2013-04-21 18:11:00,55.0,19.0,-100.00,SSW,195,7.0,20.0,24,-99.99,,,-99.99,,2013-04-22 00:11:00,
2013-04-21 18:21:00,54.0,19.0,-100.00,SSW,205,10.0,16.0,24,-99.99,,,-99.99,,2013-04-22 00:21:00,
2013-04-21 18:32:00,54.0,18.0,-100.00,SW,225,10.0,17.0,24,-99.99,,,-99.99,,2013-04-22 00:32:00,
2013-04-21 18:42:00,54.0,18.0,-100.00,SSW,200,7.0,11.0,24,-99.99,,,-99.99,,2013-04-22 00:42:00,
2013-04-21 18:51:00,54.0,19.0,-100.00,SSW,195,6.0,14.0,24,-99.99,,,-99.99,,2013-04-22 00:51:00,
2013-04-21 19:01:00,53.0,19.0,-100.00,SSW,205,1.0,14.0,24,-99.99,,,-99.99,,2013-04-22 01:01:00,
2013-04-21 19:11:00,53.0,19.0,-100.00,North,5,1.0,6.0,25,-99.99,,,-99.99,,2013-04-22 01:11:00,
2013-04-21 19:21:00,52.0,18.0,-100.00,SSW,205,0.0,6.0,25,-99.99,,,-99.99,,2013-04-22 01:21:00,
2013-04-21 19:32:00,52.0,18.0,-100.00,North,355,2.0,4.0,26,-99.99,,,-99.99,,2013-04-22 01:32:00,
2013-04-21 19:41:00,50.0,18.0,-100.00,West,275,1.0,4.0,27,-99.99,,,-99.99,,2013-04-22 01:41:00,
2013-04-21 19:52:00,49.0,18.0,-100.00,West,265,1.0,4.0,28,-99.99,,,-99.99,,2013-04-22 01:52:00,
2013-04-21 20:01:00,48.0,17.0,-100.00,WNW,300,1.0,3.0,28,-99.99,,,-99.99,,2013-04-22 02:01:00,
2013-04-21 20:11:00,47.0,17.0,-100.00,WNW,290,0.0,3.0,30,-99.99,,,-99.99,,2013-04-22 02:11:00,
2013-04-21 20:21:00,46.0,17.0,-100.00,West,260,1.0,4.0,30,-99.99,,,-99.99,,2013-04-22 02:21:00,
2013-04-21 20:32:00,45.0,17.0,-100.00,NW,325,2.0,5.0,31,-99.99,,,-99.99,,2013-04-22 02:32:00,
2013-04-21 20:41:00,44.0,17.0,-100.00,NW,310,2.0,3.0,32,-99.99,,,-99.99,,2013-04-22 02:41:00,
2013-04-21 20:51:00,44.0,18.0,-100.00,NW,325,1.0,3.0,34,-99.99,,,-99.99,,2013-04-22 02:51:00,
2013-04-21 21:02:00,43.0,17.0,-100.00,SW,230,0.0,2.0,35,-99.99,,,-99.99,,2013-04-22 03:02:00,
2013-04-21 21:11:00,42.0,18.0,-100.00,NNW,335,1.0,2.0,37,-99.99,,,-99.99,,2013-04-22 03:11:00,
2013-04-21 21:22:00,42.0,18.0,-100.00,WNW,300,0.0,3.0,37,-99.99,,,-99.99,,2013-04-22 03:22:00,
2013-04-21 21:33:00,41.0,18.0,-100.00,North,350,0.0,2.0,38,-99.99,,,-99.99,,2013-04-22 03:33:00,
2013-04-21 21:42:00,41.0,18.0,-100.00,NNW,335,0.0,0.0,40,-99.99,,,-99.99,,2013-04-22 03:42:00,
2013-04-21 21:52:00,40.0,19.0,-100.00,NW,325,0.0,1.0,41,-99.99,,,-99.99,,2013-04-22 03:52:00,
2013-04-21 22:02:00,40.0,19.0,-100.00,North,355,0.0,1.0,43,-99.99,,,-99.99,,2013-04-22 04:02:00,
2013-04-21 22:12:00,39.0,20.0,-100.00,North,0,0.0,1.0,44,-99.99,,,-99.99,,2013-04-22 04:12:00,
2013-04-21 22:23:00,39.0,20.0,-100.00,North,0,0.0,1.0,46,-99.99,,,-99.99,,2013-04-22 04:23:00,
2013-04-21 22:32:00,39.0,20.0,-100.00,SE,140,0.0,2.0,47,-99.99,,,-99.99,,2013-04-22 04:32:00,
2013-04-21 22:43:00,39.0,21.0,-100.00,West,270,0.0,2.0,49,-99.99,,,-99.99,,2013-04-22 04:43:00,
2013-04-21 22:52:00,38.0,21.0,-100.00,West,270,0.0,1.0,49,-99.99,,,-99.99,,2013-04-22 04:52:00,
2013-04-21 23:02:00,38.0,22.0,-100.00,West,270,0.0,0.0,51,-99.99,,,-99.99,,2013-04-22 05:02:00,
2013-04-21 23:11:00,38.0,22.0,-100.00,West,270,0.0,0.0,51,-99.99,,,-99.99,,2013-04-22 05:11:00,
2013-04-21 23:22:00,38.0,22.0,-100.00,West,265,0.0,1.0,53,-99.99,,,-99.99,,2013-04-22 05:22:00,
2013-04-21 23:32:00,37.0,22.0,-100.00,West,265,0.0,0.0,54,-99.99,,,-99.99,,2013-04-22 05:32:00,
2013-04-21 23:42:00,37.0,23.0,-100.00,West,270,0.0,0.0,55,-99.99,,,-99.99,,2013-04-22 05:42:00,
2013-04-21 23:52:00,37.0,22.0,-100.00,West,270,0.0,0.0,55,-99.99,,,-99.99,,2013-04-22 05:52:00,